User: anonymous   Login
Location: Cerroniocc
(13.7547°S, 72.0222°W)
Time: 17:15:48
(UTC+00:00)
Language:

Cosmos 2084 Rocket - Orbit

View from above orbital plane
View from above orbital plane
View from above satellite
View from above satellite

Ground track
Ground track

The orbit data is extracted from the following two-line orbital elements,

1 20666U 90055D   20270.81945604 -.00000010  00000-0  17249-4 0  9996
2 20666  62.7847 105.9207 0059946   0.8738 359.2450 14.92365273639894
Epoch (UTC): 26 September 2020 19:40:01
Eccentricity: 0.0059946
inclination: 62.7847°
perigee height: 549 km
apogee height: 632 km
right ascension of ascending node: 105.9207°
argument of perigee: 0.8738°
revolutions per day: 14.92365273
mean anomaly at epoch: 359.2450°
orbit number at epoch: 63989

The dashed part of the orbit path shows where the satellite is in the earth's shadow,  

DLR